CW2049 Weather Reports


time (UTC)temp
C
wind
direction
speed
KPH
gust
KPH
rain 1hr
cm
rain 24hr
cm
rain mn
cm
humidity
%
barometer
mb
20260507134533 9 359 0.0 0.0 0.00 0.00 0.00 76 1014.7
20260507133032 9 359 0.0 0.0 0.00 0.00 0.00 77 1014.7
20260507131533 9 359 0.0 0.0 0.00 0.00 0.00 78 1014.5
20260507130029 10 359 0.0 0.0 0.00 0.00 0.00 76 1014.4
20260507124544 10 359 0.0 0.0 0.00 0.00 0.00 76 1014.2
20260507123027 10 359 0.0 0.0 0.00 0.00 0.00 74 1014.0
20260507121523 9 359 0.0 0.0 0.00 0.00 0.00 74 1013.9
20260507120021 10 359 0.0 0.0 0.00 0.00 0.00 76 1013.7
20260507114519 10 359 0.0 0.0 0.00 0.00 0.00 71 1013.5
20260507113020 10 359 0.0 0.0 0.00 0.00 0.00 74 1013.4
20260507111518 10 359 0.0 0.0 0.00 0.00 0.00 74 1013.4
20260507110025 11 359 0.0 0.0 0.00 0.00 0.00 72 1013.4
20260507104511 11 359 0.0 0.0 0.00 0.00 0.00 71 1013.3
20260507103007 12 359 0.0 0.0 0.00 0.00 0.00 67 1013.2
20260507101504 13 359 0.0 0.0 0.00 0.00 0.00 64 1013.3
20260507100003 13 359 0.0 0.0 0.00 0.00 0.00 64 1013.1
20260507094600 13 359 0.0 0.0 0.00 0.00 0.00 64 1013.1
20260507093100 14 359 0.0 8.0 0.00 0.00 0.00 61 1012.9
20260507091557 14 359 0.0 6.4 0.00 0.00 0.00 61 1012.8
20260507090052 15 359 0.0 0.0 0.00 0.00 0.00 60 1012.8
20260507084552 15 359 0.0 3.2 0.00 0.00 0.00 56 1012.8
20260507083049 15 359 0.0 20.9 0.00 0.00 0.00 55 1012.7
20260507081548 16 359 0.0 6.4 0.00 0.00 0.00 56 1012.7
20260507080046 16 359 0.0 1.6 0.00 0.00 0.00 55 1012.5
20260507074554 16 359 0.0 0.0 0.00 0.00 0.00 55 1012.3
20260507073044 16 359 0.0 0.0 0.00 0.00 0.00 51 1012.3
20260507071538 17 359 0.0 0.0 0.00 0.00 0.00 49 1012.1
20260507070036 17 359 0.0 0.0 0.00 0.00 0.00 48 1012.0
20260507064532 18 359 0.0 0.0 0.00 0.00 0.00 47 1012.1
20260507063046 18 359 0.0 1.6 0.00 0.00 0.00 50 1012.1
20260507061534 18 359 0.0 0.0 0.00 0.00 0.00 47 1012.0
20260507060041 17 359 0.0 0.0 0.00 0.00 0.00 52 1011.8
20260507054531 17 359 0.0 0.0 0.00 0.00 0.00 53 1011.8
20260507053031 17 110 0.0 0.0 0.00 0.00 0.00 51 1011.8
20260507051631 17 359 0.0 0.0 0.00 0.00 0.00 49 1011.9
20260507050035 18 359 0.0 0.0 0.00 0.00 0.00 49 1011.8
20260507044529 18 359 0.0 0.0 0.00 0.00 0.00 48 1011.8
20260507043029 19 359 0.0 0.0 0.00 0.00 0.00 44 1011.8
20260507041528 20 359 0.0 0.0 0.00 0.00 0.00 40 1011.7
20260507040028 21 359 0.0 0.0 0.00 0.00 0.00 36 1011.6
20260507034534 21 359 0.0 0.0 0.00 0.00 0.00 37 1011.5
20260507033027 21 359 0.0 1.6 0.00 0.00 0.00 38 1011.4
20260507031526 22 359 0.0 0.0 0.00 0.00 0.00 36 1011.3
20260507030026 23 108 0.0 0.0 0.00 0.00 0.00 35 1011.2
20260507024527 23 108 0.0 0.0 0.00 0.00 0.00 34 1011.1
20260507023025 24 100 0.0 6.4 0.00 0.00 0.00 33 1011.0
20260507021524 25 298 0.0 8.0 0.00 0.00 0.00 33 1010.9
20260507020038 25 214 0.0 1.6 0.00 0.00 0.00 31 1010.8
20260507014523 25 303 0.0 1.6 0.00 0.00 0.00 30 1010.6
20260507013040 25 258 0.0 0.0 0.00 0.00 0.00 29 1010.5
20260507011523 26 318 0.0 0.0 0.00 0.00 0.00 30 1010.6
20260507010026 26 204 0.0 0.0 0.00 0.00 0.00 29 1010.3
20260507004523 26 210 0.0 8.0 0.00 0.00 0.00 26 1010.2
20260507003023 26 318 0.0 0.0 0.00 0.00 0.00 25 1009.9
20260507001529 27 322 0.0 1.6 0.00 0.00 0.00 26 1010.0
20260507000022 26 253 4.8 29.0 0.00 0.00 0.00 24 1010.0
20260506234528 27 312 4.8 16.1 0.00 0.00 0.00 25 1010.0
20260506233019 28 335 0.0 0.0 0.00 0.00 0.00 25 1009.7
20260506231518 27 322 0.0 3.2 0.00 0.00 0.00 25 1010.0
20260506230016 27 123 0.0 17.7 0.00 0.00 0.00 25 1010.0
20260506224514 28 287 0.0 4.8 0.00 0.00 0.00 25 1010.3
20260506223014 28 98 0.0 8.0 0.00 0.00 0.00 25 1010.4
20260506221511 27 144 0.0 16.1 0.00 0.00 0.00 27 1010.2
20260506220020 27 126 1.6 17.7 0.00 0.00 0.00 27 1010.5
20260506214508 27 136 6.4 20.9 0.00 0.00 0.00 28 1010.5
20260506213006 27 125 11.3 25.7 0.00 0.00 0.00 28 1010.7
20260506211504 27 122 8.0 24.1 0.00 0.00 0.00 29 1010.8
20260506210000 26 118 11.3 25.7 0.00 0.00 0.00 29 1011.2
20260506204559 26 122 1.6 24.1 0.00 0.00 0.00 30 1011.3
20260506203056 26 117 3.2 22.5 0.00 0.00 0.00 30 1011.5
20260506201557 26 114 0.0 24.1 0.00 0.00 0.00 30 1011.5
20260506200051 25 139 11.3 27.4 0.00 0.00 0.00 30 1011.7
20260506194550 25 137 12.9 32.2 0.00 0.00 0.00 31 1011.9
20260506193044 25 106 11.3 30.6 0.00 0.00 0.00 31 1012.3
20260506191542 24 133 1.6 24.1 0.00 0.00 0.00 32 1012.6
20260506190039 23 115 9.7 24.1 0.00 0.00 0.00 32 1012.7
20260506184540 23 119 9.7 24.1 0.00 0.00 0.00 32 1012.9
20260506183039 23 143 11.3 24.1 0.00 0.00 0.00 32 1013.0
20260506181540 23 154 16.1 29.0 0.00 0.00 0.00 32 1012.9
20260506180041 23 116 12.9 29.0 0.00 0.00 0.00 32 1012.8
20260506174536 23 129 14.5 30.6 0.00 0.00 0.00 33 1012.9
20260506173042 23 113 17.7 30.6 0.00 0.00 0.00 33 1012.9
20260506171530 22 133 9.7 24.1 0.00 0.00 0.00 35 1013.0
20260506170025 21 143 0.0 3.2 0.00 0.00 0.00 39 1013.4
20260506164524 19 146 0.0 0.0 0.00 0.00 0.00 39 1013.6
20260506163023 18 158 0.0 0.0 0.00 0.00 0.00 41 1013.9
20260506161514 17 158 0.0 0.0 0.00 0.00 0.00 44 1014.1
20260506160015 16 158 0.0 0.0 0.00 0.00 0.00 44 1014.4
20260506154507 16 158 0.0 0.0 0.00 0.00 0.00 50 1014.7
20260506153002 15 359 0.0 0.0 0.00 0.00 0.00 51 1014.8
20260506151558 12 359 0.0 0.0 0.00 0.00 0.00 59 1014.9
20260506150057 11 359 0.0 0.0 0.00 0.00 0.00 61 1015.2
20260506144556 11 359 0.0 0.0 0.00 0.00 0.00 67 1015.3
20260506143056 10 359 0.0 0.0 0.00 0.00 0.00 65 1015.4
20260506141609 9 359 0.0 0.0 0.00 0.00 0.00 73 1015.5
20260506140054 8 359 0.0 0.0 0.00 0.00 0.00 73 1015.6